Total_Precipitation_Accumulation
1.35 1.22 1.14 1.19 1.17 1.15 1.18 1.22 1.15 1.05 1.00 0.95 0.92 0.87 0.83 0.71 0.64 0.60 0.55 0.54 0.52 0.59 0.87 1.12 1.31 1.56 1.81 2.01 2.19 2.16 1.89 1.73 1.60 1.48 1.46 1.57 1.63 1.64 1.64 1.73 1.86 1.83 1.69
1.44 1.34 1.21 1.17 1.16 1.14 1.15 1.14 1.12 1.03 0.95 0.86 0.80 0.79 0.85 0.82 0.75 0.68 0.59 0.57 0.54 0.55 0.71 0.97 1.23 1.49 1.79 2.09 2.33 2.51 2.29 2.14 1.95 1.74 1.56 1.56 1.67 1.72 1.72 1.77 1.86 2.01 2.03
1.61 1.55 1.42 1.28 1.18 1.15 1.19 1.20 1.17 1.15 1.04 0.90 0.79 0.75 0.74 0.75 0.76 0.72 0.64 0.59 0.59 0.59 0.66 0.85 1.07 1.33 1.64 2.01 2.34 2.57 2.70 2.52 2.34 2.15 1.89 1.67 1.67 1.78 1.87 1.94 1.98 2.08 2.17
1.89 1.80 1.69 1.54 1.41 1.29 1.23 1.24 1.17 1.15 1.11 1.00 0.88 0.79 0.73 0.70 0.67 0.65 0.61 0.60 0.61 0.62 0.67 0.78 0.90 1.17 1.44 1.71 2.09 2.42 2.80 2.78 2.74 2.62 2.46 2.12 1.86 1.85 1.96 2.05 2.18 2.24 2.24
2.11 2.05 1.93 1.81 1.73 1.60 1.43 1.31 1.25 1.16 1.10 1.05 1.01 0.93 0.83 0.75 0.71 0.68 0.61 0.55 0.54 0.56 0.62 0.69 0.78 0.94 1.17 1.45 1.79 2.15 2.55 2.91 3.03 3.03 2.99 2.77 2.36 2.05 2.06 2.18 2.25 2.39 2.49
2.41 2.32 2.19 2.02 1.97 1.87 1.73 1.55 1.42 1.29 1.16 1.08 1.09 1.08 0.97 0.89 0.80 0.71 0.65 0.60 0.56 0.54 0.58 0.63 0.66 0.73 0.92 1.16 1.47 1.87 2.29 2.75 3.14 3.25 3.24 3.26 3.11 2.67 2.43 2.42 2.42 2.53 2.70
2.56 2.58 2.40 2.26 2.17 2.05 1.83 1.70 1.66 1.57 1.40 1.25 1.25 1.28 1.15 0.99 0.95 0.82 0.70 0.63 0.60 0.55 0.55 0.62 0.66 0.66 0.75 0.96 1.16 1.43 1.90 2.39 2.94 3.50 3.54 3.47 3.56 3.38 3.01 2.82 2.74 2.80 2.98
2.49 2.72 2.62 2.43 2.31 2.23 2.12 1.91 1.77 1.75 1.67 1.47 1.36 1.39 1.42 1.34 1.12 0.92 0.80 0.68 0.64 0.61 0.59 0.59 0.65 0.68 0.69 0.78 0.89 1.13 1.46 1.97 2.50 3.24 3.94 4.02 4.07 4.17 3.79 3.37 3.19 3.18 3.29
2.24 2.35 2.44 2.33 2.33 2.28 2.22 2.11 1.93 1.83 1.86 1.71 1.45 1.51 1.59 1.42 1.13 0.97 0.87 0.78 0.70 0.66 0.62 0.60 0.62 0.67 0.69 0.78 0.83 0.93 1.14 1.52 2.03 2.66 3.50 4.26 4.51 4.74 4.69 4.06 3.70 3.62 3.61
2.20 2.22 2.28 2.29 2.14 2.07 2.02 2.02 2.00 1.89 1.92 1.92 1.69 1.42 1.31 1.25 1.30 1.17 0.95 0.88 0.87 0.79 0.71 0.64 0.62 0.67 0.71 0.77 0.89 0.95 1.01 1.19 1.59 2.14 2.87 3.80 4.62 5.06 5.38 5.01 4.34 4.09 4.00
2.17 2.26 2.23 2.25 2.27 2.12 1.94 1.87 1.91 1.94 1.91 1.87 1.76 1.56 1.34 1.14 1.09 1.24 1.10 0.95 0.99 0.96 0.90 0.81 0.75 0.75 0.76 0.82 0.87 0.97 1.10 1.18 1.53 1.85 2.31 2.99 4.08 5.01 5.68 5.82 5.22 4.55 4.23
1.94 2.08 2.17 2.13 2.14 2.17 2.11 1.92 1.84 1.89 1.87 1.82 1.75 1.65 1.53 1.41 1.21 1.18 1.13 0.93 0.91 0.91 0.95 0.99 0.96 0.93 0.91 0.91 1.01 1.22 1.22 1.32 1.57 1.71 1.84 2.19 2.96 4.04 4.99 5.59 5.44 4.81 4.40
1.79 1.83 1.94 2.00 1.98 1.99 2.04 2.02 1.92 1.87 1.85 1.85 1.79 1.66 1.53 1.42 1.31 1.33 1.37 1.18 0.98 0.86 0.90 0.97 0.99 1.02 1.06 1.04 1.15 1.29 1.27 1.42 1.52 1.63 1.66 1.81 2.21 3.00 3.95 4.88 5.34 5.03 4.55
1.64 1.61 1.66 1.76 1.77 1.73 1.80 1.92 1.91 1.82 1.82 1.83 1.79 1.75 1.67 1.48 1.39 1.45 1.55 1.63 1.47 1.06 0.89 0.91 0.93 1.00 1.13 1.17 1.28 1.43 1.34 1.46 1.53 1.61 1.66 1.69 1.85 2.16 2.85 3.90 5.17 5.61 4.97
1.62 1.62 1.60 1.61 1.58 1.58 1.58 1.63 1.69 1.66 1.70 1.73 1.74 1.76 1.78 1.63 1.51 1.45 1.49 1.70 2.03 1.80 1.17 0.88 0.91 0.98 1.08 1.20 1.40 1.26 1.17 1.29 1.36 1.43 1.55 1.63 1.72 1.84 2.11 2.73 3.71 5.06 5.71
1.59 1.61 1.60 1.59 1.54 1.48 1.53 1.56 1.52 1.47 1.53 1.58 1.62 1.69 1.72 1.65 1.56 1.49 1.53 1.55 1.67 1.90 1.59 0.97 0.88 0.93 1.07 1.15 1.32 1.20 1.21 1.41 1.39 1.42 1.49 1.57 1.66 1.73 1.87 2.15 2.68 3.54 4.74
1.51 1.47 1.49 1.53 1.52 1.47 1.46 1.56 1.54 1.45 1.48 1.48 1.50 1.54 1.56 1.56 1.58 1.51 1.50 1.52 1.49 1.58 1.61 1.05 0.88 0.93 1.12 1.21 1.22 1.17 1.22 1.26 1.27 1.43 1.48 1.51 1.58 1.67 1.86 2.06 2.35 2.79 3.45
1.48 1.46 1.42 1.45 1.47 1.48 1.49 1.52 1.51 1.44 1.42 1.42 1.43 1.43 1.42 1.45 1.52 1.46 1.44 1.40 1.35 1.31 1.39 1.22 0.97 0.96 1.05 1.13 1.23 1.31 1.30 1.29 1.23 1.38 1.41 1.50 1.63 1.70 1.80 2.00 2.25 2.54 2.89
1.42 1.44 1.45 1.44 1.46 1.51 1.52 1.47 1.48 1.44 1.38 1.37 1.38 1.39 1.34 1.40 1.47 1.43 1.42 1.36 1.27 1.19 1.20 1.25 1.09 1.00 1.05 1.10 1.27 1.43 1.42 1.43 1.36 1.41 1.45 1.51 1.62 1.73 1.81 1.92 2.14 2.36 2.54
1.41 1.36 1.37 1.41 1.50 1.65 1.71 1.68 1.71 1.57 1.45 1.39 1.33 1.29 1.30 1.42 1.46 1.48 1.53 1.43 1.36 1.38 1.38 1.42 1.30 1.17 1.17 1.18 1.37 1.63 1.73 1.68 1.60 1.42 1.49 1.54 1.66 1.78 1.82 1.82 1.89 2.01 2.16
1.41 1.33 1.32 1.39 1.49 1.84 2.23 2.25 2.15 1.84 1.53 1.37 1.28 1.26 1.31 1.46 1.53 1.70 1.84 1.72 1.69 1.80 1.77 1.75 1.63 1.53 1.45 1.46 1.54 1.58 1.77 1.80 1.79 1.61 1.50 1.42 1.45 1.47 1.57 1.70 1.77 1.83 1.95
1.50 1.40 1.34 1.36 1.42 1.71 2.43 2.59 2.21 1.72 1.50 1.37 1.31 1.25 1.26 1.41 1.45 1.57 1.78 1.88 1.94 2.06 2.14 2.10 1.98 1.83 1.56 1.46 1.49 1.64 1.75 1.95 2.03 1.70 1.60 1.56 1.49 1.59 1.54 1.54 1.77 1.81 1.88
1.60 1.59 1.44 1.33 1.30 1.50 2.21 2.40 2.12 1.64 1.45 1.37 1.30 1.29 1.29 1.33 1.42 1.38 1.52 1.60 1.64 1.79 2.02 2.13 2.18 1.77 1.53 1.46 1.69 1.90 1.86 1.95 1.91 1.80 1.93 1.90 1.59 1.63 1.56 1.68 1.92 1.84 1.85
1.51 1.57 1.52 1.40 1.29 1.38 1.98 2.19 2.01 1.65 1.49 1.39 1.29 1.27 1.27 1.29 1.39 1.60 1.57 1.52 1.42 1.44 1.64 1.83 2.10 1.92 1.72 1.75 2.10 2.43 2.52 2.39 1.97 1.76 1.94 2.17 1.70 1.60 1.66 1.77 1.96 1.89 1.81
1.40 1.41 1.41 1.41 1.36 1.35 1.74 2.04 1.88 1.56 1.51 1.41 1.29 1.25 1.27 1.27 1.54 1.82 1.72 1.57 1.38 1.29 1.40 1.74 2.05 2.19 2.24 2.37 2.61 2.93 3.09 2.92 2.43 1.86 1.82 2.12 1.91 1.71 1.87 2.09 2.15 2.10 1.86
1.33 1.33 1.34 1.35 1.29 1.25 1.54 1.85 1.85 1.51 1.43 1.37 1.30 1.26 1.41 1.51 1.72 1.86 1.68 1.63 1.72 1.47 1.31 1.38 1.48 1.60 1.67 1.84 2.24 2.52 2.84 2.96 2.58 2.33 1.93 2.06 2.18 2.19 2.51 2.35 2.20 2.03 1.82